Weather History for Barter Island, AK

Change the Weather History Date:

Sunday, September 30, 2012

  Actual Average Record
Temperature  
Mean Temperature 36 °F -  
Max Temperature 35 °F 29 °F 39 °F (2003)
Min Temperature 35 °F 22 °F 10 °F (1999)
Degree Days  
Heating Degree Days 30    
Moisture  
Dew Point 33 °F    
Average Humidity 91    
Maximum Humidity 93    
Minimum Humidity 85    
Precipitation  
Precipitation 0.01 in - - ()
Sea Level Pressure  
Sea Level Pressure 30.02 in    
Wind  
Wind Speed 10 mph (ENE)    
Max Wind Speed 14 mph    
Max Gust Speed -    
Visibility 10 miles    
Events Rain , Snow    
Averages and records for this station are not official NWS values.
T = Trace of Precipitation, MM = Missing Value Source: NWS Daily Summary

Daily Weather History Graph

Daily Weather History Graph

Search for Another Location

Airport:

Trip Planner

Search our weather history database for the weather conditions in past years. The results will help you decide how hot, cold, wet, or windy it might be!

Date:

Astronomy

Sep. 30, 2012 Rise Set
Actual Time 7:49 AM AKDT 6:57 PM AKDT
Civil Twilight 6:47 AM AKDT 7:57 PM AKDT
Nautical Twilight 5:33 AM AKDT 9:11 PM AKDT
Astronomical Twilight 4:05 AM AKDT 10:37 PM AKDT
Moon 5:59 PM AKDT (9/30) 9:24 AM AKDT (9/30)
Length of Visible Light 13h 09m
Length of Day
11h 08m
Full, 100% of the Moon is Illuminated
Sep 30
Full
Oct 7
Last Quarter
Oct 15
New
Oct 21
First Quarter
Oct 29
Full

Hourly Weather History & Observations

Time (AKDT) Temp. Windchill Dew Point Humidity Pressure Visibility Wind Dir Wind Speed Gust Speed Precip Events Conditions
12:01 AM 36.0 °F 28.5 °F 32.0 °F 86% 29.88 in 10.0 mi NE 10.4 mph - 0.00 in   Overcast
1:01 AM 36.0 °F 29.6 °F 32.0 °F 86% 29.89 in 10.0 mi ENE 8.1 mph - 0.00 in   Overcast
2:01 AM 36.0 °F 28.0 °F 33.1 °F 89% 29.91 in 10.0 mi NNE 11.5 mph - 0.00 in   Overcast
2:59 AM 35.6 °F 26.6 °F 33.8 °F 93% 29.92 in 9.0 mi NE 13.8 mph - 0.00 in   Overcast
3:01 AM 35.1 °F 27.4 °F 33.1 °F 92% 29.93 in 8.0 mi NE 10.4 mph - 0.00 in   Overcast
3:14 AM 35.6 °F 26.6 °F 33.8 °F 93% 29.93 in 9.0 mi ENE 13.8 mph - 0.00 in Snow Light Snow
3:35 AM 35.6 °F 27.5 °F 33.8 °F 93% 29.93 in 10.0 mi ENE 11.5 mph - 0.00 in   Overcast
4:01 AM 35.6 °F 27.5 °F 33.8 °F 93% 29.94 in 10.0 mi NNE 11.5 mph - 0.00 in   Overcast
4:07 AM 35.1 °F 27.4 °F 33.1 °F 92% 29.94 in 10.0 mi NNE 10.4 mph - 0.00 in   Overcast
4:15 AM 35.6 °F 27.5 °F 33.8 °F 93% 29.95 in 10.0 mi NNE 11.5 mph - 0.00 in Rain Light Rain
4:58 AM 35.6 °F 27.1 °F 33.8 °F 93% 29.96 in 10.0 mi NE 12.7 mph - 0.00 in   Overcast
5:01 AM 35.1 °F 26.4 °F 33.1 °F 92% 29.96 in 10.0 mi NE 12.7 mph - 0.00 in   Overcast
5:22 AM 35.6 °F 27.1 °F 32.0 °F 87% 29.96 in 9.0 mi NE 12.7 mph - 0.00 in Rain Light Rain
5:33 AM 35.6 °F 27.1 °F 32.0 °F 87% 29.97 in 10.0 mi NE 12.7 mph - 0.00 in Rain Light Rain
6:01 AM 36.0 °F 28.0 °F 33.1 °F 89% 29.98 in 10.0 mi NE 11.5 mph - 0.00 in   Overcast
7:01 AM 36.0 °F 29.0 °F 32.0 °F 86% 29.99 in 10.0 mi East 9.2 mph - 0.00 in Rain Light Rain
7:31 AM 35.6 °F 28.6 °F 32.0 °F 87% 29.99 in 10.0 mi ENE 9.2 mph - 0.00 in Rain Light Rain
7:45 AM 35.6 °F 28.6 °F 32.0 °F 87% 29.99 in 10.0 mi ENE 9.2 mph - 0.00 in Rain Light Rain
8:01 AM 35.1 °F 28.6 °F 33.1 °F 92% 30.00 in 10.0 mi East 8.1 mph - 0.00 in Rain Light Rain
8:16 AM 35.6 °F 28.0 °F 33.8 °F 93% 30.00 in 10.0 mi East 10.4 mph - 0.00 in Rain Light Rain
8:29 AM 35.6 °F 28.0 °F 33.8 °F 93% 30.01 in 10.0 mi East 10.4 mph - 0.00 in Rain Light Rain
8:48 AM 35.6 °F 27.5 °F 33.8 °F 93% 30.01 in 10.0 mi East 11.5 mph - 0.00 in   Mostly Cloudy
9:01 AM 35.1 °F 26.4 °F 30.9 °F 85% 30.01 in 10.0 mi East 12.7 mph - 0.00 in Rain Light Rain
10:01 AM 35.1 °F 31.0 °F 33.1 °F 92% 30.03 in 10.0 mi ESE 4.6 mph - 0.00 in   Overcast
10:18 AM 35.6 °F 28.0 °F 33.8 °F 93% 30.03 in 10.0 mi ENE 10.4 mph - N/A   Overcast
11:01 AM 35.6 °F 28.0 °F 33.8 °F 93% 30.03 in 10.0 mi ENE 10.4 mph - 0.00 in   Overcast
11:12 AM 35.6 °F 28.0 °F 33.8 °F 93% 30.04 in 10.0 mi ENE 10.4 mph - 0.00 in   Overcast
12:01 PM 35.1 °F 27.4 °F 32.0 °F 89% 30.04 in 4.0 mi East 10.4 mph - 0.01 in Snow Light Snow
12:48 PM 35.6 °F 29.9 °F 33.8 °F 93% 30.06 in 6.0 mi East 6.9 mph - 0.00 in Rain Light Rain
1:01 PM 35.1 °F 27.4 °F 33.1 °F 92% 30.06 in 6.0 mi ENE 10.4 mph - 0.00 in Rain Light Rain
1:20 PM 35.6 °F 29.2 °F 33.8 °F 93% 30.06 in 6.0 mi East 8.1 mph - 0.00 in Rain Light Rain
2:01 PM 35.1 °F 27.4 °F 33.1 °F 92% 30.06 in 9.0 mi East 10.4 mph - 0.00 in   Overcast
2:31 PM 35.6 °F 28.0 °F 33.8 °F 93% 30.06 in 10.0 mi East 10.4 mph - N/A   Overcast
3:01 PM 36.0 °F 29.0 °F 33.1 °F 89% 30.07 in 10.0 mi East 9.2 mph - N/A   Overcast
3:08 PM 35.6 °F 28.6 °F 33.8 °F 93% 30.07 in 10.0 mi East 9.2 mph - N/A   Overcast
3:39 PM 35.6 °F 27.1 °F 33.8 °F 93% 30.07 in 10.0 mi East 12.7 mph - N/A   Overcast
4:01 PM 36.0 °F 29.6 °F 33.1 °F 89% 30.07 in 10.0 mi East 8.1 mph - N/A   Overcast
4:16 PM 35.6 °F 29.2 °F 33.8 °F 93% 30.07 in 10.0 mi East 8.1 mph - N/A   Overcast
4:26 PM 35.6 °F 29.2 °F 33.8 °F 93% 30.07 in 10.0 mi ENE 8.1 mph - N/A   Overcast
4:50 PM 35.6 °F 28.6 °F 33.8 °F 93% 30.07 in 10.0 mi East 9.2 mph - N/A   Overcast
5:01 PM 36.0 °F 29.6 °F 34.0 °F 93% 30.08 in 10.0 mi East 8.1 mph - N/A   Overcast
6:01 PM 36.0 °F 30.3 °F 34.0 °F 93% 30.08 in 10.0 mi East 6.9 mph - N/A   Overcast
7:01 PM 36.0 °F 29.6 °F 33.1 °F 89% 30.08 in 10.0 mi East 8.1 mph - N/A   Overcast
8:01 PM 36.0 °F 28.5 °F 34.0 °F 93% 30.09 in 10.0 mi East 10.4 mph - N/A   Overcast
8:15 PM 35.6 °F 29.2 °F 33.8 °F 93% 30.09 in 10.0 mi ESE 8.1 mph - N/A   Overcast
8:49 PM 35.6 °F 29.2 °F 33.8 °F 93% 30.08 in 10.0 mi East 8.1 mph - N/A   Overcast
9:01 PM 36.0 °F 29.0 °F 33.1 °F 89% 30.09 in 10.0 mi East 9.2 mph - N/A   Overcast
10:01 PM 35.1 °F 28.6 °F 32.0 °F 89% 30.09 in 10.0 mi SE 8.1 mph - N/A   Overcast
11:01 PM 35.1 °F 28.6 °F 33.1 °F 92% 30.09 in 10.0 mi SE 8.1 mph - N/A   Overcast
11:45 PM 35.6 °F 29.2 °F 32.0 °F 87% 30.09 in 10.0 mi SE 8.1 mph - N/A   Overcast
11:53 PM 35.6 °F 30.7 °F 32.0 °F 87% 30.09 in 10.0 mi SE 5.8 mph - N/A   Overcast